Erie, PA

8:42 AM EDT on September 25, 2017 (GMT -0400)
Erie International

Weather History for KERI - May, 2014

Change the Weather History Date:

Sunday, May 11, 2014

  Actual Average Record
Temperature  
Mean Temperature 60 °F 56 °F  
Max Temperature 71 °F 65 °F 86 °F (1953)
Min Temperature 49 °F 47 °F 31 °F (1966)
Degree Days  
Heating Degree Days 5 10  
Month to date heating degree days 119 125  
Since 1 July heating degree days 6609 5944  
Cooling Degree Days 0 1  
Month to date cooling degree days 7 6  
Year to date cooling degree days 7 13  
Growing Degree Days 10 (Base 50)    
Moisture  
Dew Point 41 °F    
Average Humidity 50    
Maximum Humidity 71    
Minimum Humidity 28    
Precipitation  
Precipitation 0.00 in 0.11 in 1.23 in (1956)
Month to date precipitation 0.80 1.17  
Year to date precipitation 13.70 12.79  
Snow  
Snow 0.00 in 0.00 in - ()
Month to date snowfall 0.0 0.0  
Since 1 July snowfall 138.4 100.9  
Snow Depth 0.00 in    
Sea Level Pressure  
Sea Level Pressure 30.07 in    
Wind  
Wind Speed 4 mph (WSW)    
Max Wind Speed 10 mph    
Max Gust Speed 29 mph    
Visibility 10 miles    
Events      
T = Trace of Precipitation, MM = Missing Value Source: NWS Daily Summary

Daily Weather History Graph

Daily Weather History Graph

Search for Another Location

Airport or City:

Trip Planner

Search our weather history database for the weather conditions in past years. The results will help you decide how hot, cold, wet, or windy it might be!

Date:

Astronomy

May. 11, 2014 Rise Set
Actual Time 6:04 AM EDT 8:30 PM EDT
Civil Twilight 5:32 AM EDT 9:02 PM EDT
Nautical Twilight 4:53 AM EDT 9:41 PM EDT
Astronomical Twilight 4:09 AM EDT 10:25 PM EDT
Moon 5:21 PM EDT (5/11) 4:12 AM EDT (5/11)
Length of Visible Light 15h 29m
Length of Day
14h 26m
Waxing Gibbous, 89% of the Moon is Illuminated
May 11
Waxing Gibbous
May 14
Full
May 21
Last Quarter
May 28
New
Jun 5
First Quarter

Hourly Weather History & Observations

Time (EDT) Temp. Dew Point Humidity Pressure Visibility Wind Dir Wind Speed Gust Speed Precip Events Conditions
12:51 AM 53.6 °F 39.2 °F 58% 29.99 in 10.0 mi SSW 4.6 mph - N/A   Clear
1:51 AM 53.6 °F 39.2 °F 58% 30.00 in 10.0 mi SSW 5.8 mph - N/A   Clear
2:51 AM 53.1 °F 39.0 °F 59% 30.01 in 10.0 mi SSW 4.6 mph - N/A   Clear
3:51 AM 52.0 °F 39.0 °F 61% 30.02 in 10.0 mi Calm Calm - N/A   Clear
4:51 AM 51.8 °F 39.2 °F 62% 30.03 in 10.0 mi South 4.6 mph - N/A   Clear
5:51 AM 48.9 °F 39.0 °F 69% 30.06 in 10.0 mi South 3.5 mph - N/A   Clear
6:51 AM 50.0 °F 39.9 °F 68% 30.08 in 10.0 mi South 3.5 mph - N/A   Clear
7:51 AM 57.2 °F 42.8 °F 59% 30.10 in 10.0 mi SSW 4.6 mph - N/A   Clear
8:51 AM 60.1 °F 42.1 °F 51% 30.11 in 10.0 mi Calm Calm - N/A   Clear
9:51 AM 63.0 °F 44.1 °F 50% 30.12 in 10.0 mi WNW 5.8 mph - N/A   Clear
10:51 AM 61.0 °F 43.0 °F 52% 30.12 in 10.0 mi WNW 9.2 mph - N/A   Clear
11:51 AM 64.0 °F 46.0 °F 52% 30.13 in 10.0 mi WNW 4.6 mph - N/A   Clear
12:51 PM 64.9 °F 45.0 °F 48% 30.13 in 10.0 mi NW 5.8 mph - N/A   Clear
1:51 PM 64.0 °F 43.0 °F 46% 30.12 in 10.0 mi NNW 4.6 mph - N/A   Clear
2:51 PM 69.1 °F 37.9 °F 32% 30.09 in 10.0 mi NNW 4.6 mph - N/A   Clear
3:51 PM 69.1 °F 37.9 °F 32% 30.08 in 10.0 mi NNW 3.5 mph - N/A   Overcast
4:51 PM 69.1 °F 37.9 °F 32% 30.07 in 10.0 mi Calm Calm - N/A   Overcast
5:51 PM 70.0 °F 36.0 °F 29% 30.07 in 10.0 mi North 3.5 mph - N/A   Overcast
6:51 PM 70.0 °F 35.1 °F 28% 30.07 in 10.0 mi NNE 3.5 mph - N/A   Partly Cloudy
7:51 PM 68.0 °F 37.0 °F 32% 30.05 in 10.0 mi NE 4.6 mph - N/A   Clear
8:51 PM 64.9 °F 39.0 °F 39% 30.04 in 10.0 mi Calm Calm - N/A   Clear
9:51 PM 62.1 °F 43.0 °F 50% 30.05 in 10.0 mi South 4.6 mph - N/A   Clear
10:51 PM 64.0 °F 43.0 °F 46% 30.07 in 10.0 mi South 6.9 mph - N/A   Clear
11:51 PM 64.9 °F 46.9 °F 52% 30.05 in 10.0 mi South 6.9 mph - N/A   Clear